Weather History for Tallahassee, FL

Change the Weather History Date:

Thursday, August 21, 2014

  Actual Average Record
Temperature  
Mean Temperature 87 °F 82 °F  
Max Temperature 99 °F 91 °F 99 °F (1968)
Min Temperature 74 °F 72 °F 60 °F (1991)
Degree Days  
Heating Degree Days 0    
Month to date heating degree days 0  
Since 1 June heating degree days 0  
Since 1 July heating degree days 0  
Cooling Degree Days 22    
Month to date cooling degree days 413  
Year to date cooling degree days 1968  
Since 1 June cooling degree days 1479  
Growing Degree Days 36 (Base 50)    
Moisture  
Dew Point 72 °F    
Average Humidity 64    
Maximum Humidity 87    
Minimum Humidity 40    
Precipitation  
Precipitation 0.00 in 0.23 in 1.60 in (1979)
Month to date precipitation 1.93 5.30  
Year to date precipitation 40.75 41.86  
Sea Level Pressure  
Sea Level Pressure 30.09 in    
Wind  
Wind Speed 4 mph (NW)    
Max Wind Speed 14 mph    
Max Gust Speed 32 mph    
Visibility 10 miles    
Events Thunderstorm    
T = Trace of Precipitation, MM = Missing Value Source: NWS Daily Summary

Daily Weather History Graph

Daily Weather History Graph

Search for Another Location

Airport:

Trip Planner

Search our weather history database for the weather conditions in past years. The results will help you decide how hot, cold, wet, or windy it might be!

Date:

Astronomy

Aug. 21, 2014 Rise Set
Actual Time 7:07 AM EDT 8:12 PM EDT
Civil Twilight 6:42 AM EDT 8:37 PM EDT
Nautical Twilight 6:13 AM EDT 9:07 PM EDT
Astronomical Twilight 5:42 AM EDT 9:37 PM EDT
Moon 3:44 AM EDT (8/21) 5:35 PM EDT (8/21)
Length of Visible Light 13h 54m
Length of Day
13h 04m
Waning Crescent, 13% of the Moon is Illuminated
Aug 21
Waning Crescent
Aug 25
New
Sep 2
First Quarter
Sep 8
Full
Sep 15
Last Quarter

Hourly Weather History & Observations

Time (EDT) Temp. Heat Index Dew Point Humidity Pressure Visibility Wind Dir Wind Speed Gust Speed Precip Events Conditions
12:53 AM 79.0 °F - 73.0 °F 82% 30.10 in 10.0 mi Calm Calm - N/A   Unknown
1:53 AM 78.1 °F - 73.0 °F 84% 30.10 in 10.0 mi Calm Calm - N/A   Clear
2:53 AM 78.1 °F - 73.0 °F 84% 30.08 in 9.0 mi Calm Calm - N/A   Clear
3:53 AM 75.9 °F - 72.0 °F 87% 30.08 in 10.0 mi Calm Calm - N/A   Clear
4:53 AM 75.0 °F - 72.0 °F 90% 30.06 in 9.0 mi North - - N/A   Clear
5:53 AM 75.9 °F - 72.0 °F 87% 30.07 in 10.0 mi Calm Calm - N/A   Clear
6:53 AM 75.0 °F - 72.0 °F 90% 30.10 in 10.0 mi Calm Calm - N/A   Clear
7:53 AM 75.9 °F - 72.0 °F 87% 30.12 in 10.0 mi Calm Calm - N/A   Clear
8:53 AM 80.1 °F 84.5 °F 73.9 °F 81% 30.14 in 10.0 mi NNW 4.6 mph - N/A   Clear
9:53 AM 84.9 °F 91.4 °F 73.0 °F 67% 30.15 in 10.0 mi NW 5.8 mph - N/A   Partly Cloudy
10:53 AM 90.0 °F 97.9 °F 73.0 °F 57% 30.14 in 10.0 mi Variable 3.5 mph - N/A   Partly Cloudy
11:53 AM 93.0 °F 100.7 °F 72.0 °F 50% 30.13 in 10.0 mi Variable 3.5 mph - N/A   Partly Cloudy
12:53 PM 95.0 °F 104.5 °F 73.0 °F 49% 30.12 in 10.0 mi Variable 5.8 mph - N/A   Scattered Clouds
1:53 PM 93.9 °F 102.1 °F 72.0 °F 49% 30.10 in 10.0 mi West 3.5 mph - N/A   Mostly Cloudy
2:53 PM 97.0 °F 105.5 °F 72.0 °F 44% 30.09 in 10.0 mi WNW 8.1 mph - N/A   Scattered Clouds
3:53 PM 98.1 °F 106.5 °F 71.1 °F 42% 30.06 in 10.0 mi West 5.8 mph - N/A   Scattered Clouds
4:53 PM 98.1 °F 102.4 °F 66.9 °F 36% 30.04 in 10.0 mi WNW 9.2 mph - N/A Thunderstorm Thunderstorm
5:26 PM 95.0 °F 101.3 °F 69.8 °F 44% 30.05 in 10.0 mi North 15.0 mph - N/A Thunderstorm Thunderstorm
5:53 PM 96.1 °F 101.0 °F 68.0 °F 40% 30.05 in 10.0 mi NE 10.4 mph - N/A Thunderstorm Thunderstorm
6:21 PM 91.4 °F 98.4 °F 71.6 °F 52% 30.06 in 10.0 mi East 8.1 mph - N/A   Mostly Cloudy
6:53 PM 86.0 °F 93.0 °F 73.0 °F 65% 30.06 in 10.0 mi NE 6.9 mph - N/A   Mostly Cloudy
7:53 PM 86.0 °F 93.0 °F 73.0 °F 65% 30.08 in 10.0 mi South 3.5 mph - N/A   Mostly Cloudy
8:53 PM 84.0 °F 90.2 °F 73.0 °F 69% 30.09 in 10.0 mi SSE 6.9 mph - N/A   Mostly Cloudy
9:53 PM 82.9 °F 87.5 °F 71.1 °F 67% 30.10 in 10.0 mi SSE 5.8 mph - N/A   Mostly Cloudy
10:53 PM 82.9 °F 87.5 °F 71.1 °F 67% 30.11 in 10.0 mi Calm Calm - N/A   Mostly Cloudy
11:53 PM 82.0 °F 86.7 °F 72.0 °F 71% 30.12 in 10.0 mi Calm Calm - N/A   Clear